Location: Stamford Observatory
(41.1241°N, 73.5498°W)
Time: 17:45:21
(UTC-04:00)

Daily predictions for brighter satellites

Satellite Brightness Start Highest point End
(mag) Time Altitude Azimuth Time Altitude Azimuth Time Altitude Azimuth
BREEZE-M DEB (TANK) 4.0 19:51:55 10° WNW 19:55:31 55° N 20:07:35 10° E
Meteor 1-27 4.2 20:02:19 10° S 20:07:56 80° E 20:13:31 10° NNE
CENTAUR R/B 2.8 20:04:56 10° SW 20:10:56 75° NW 20:17:50 10° NNE
Gblst 52 Del rocket 4.3 20:06:43 10° NW 20:12:43 83° SW 20:18:14 10° SE
Cosmos 1408 4.4 20:10:28 10° NNE 20:12:49 16° ENE 20:15:08 10° ESE
ERBS 3.8 20:13:08 10° NNW 20:16:06 26° NE 20:19:04 10° E
Cosmos 1455 2.3 20:13:16 10° S 20:16:58 52° E 20:20:40 10° NNE
Cosmos 1869 4.1 20:16:57 10° SSE 20:20:25 30° E 20:23:54 10° NNE
Cosmos 1697 Rocket 3.3 20:16:09 10° SW 20:21:45 65° WNW 20:27:23 10° NNE
SeaSat 1 4.5 20:21:48 10° ENE 20:24:16 14° NE 20:26:46 10° NNE
ATLAS CENTAUR R/B 2.7 20:23:31 10° WNW 20:25:54 38° SW 20:31:08 10° SSE
Cosmos 1400 Rocket 3.0 20:23:22 10° NNW 20:27:15 73° W 20:31:10 10° S
Cosmos 2297 Rocket 4.1 20:24:45 10° NW 20:29:38 30° WSW 20:34:29 10° SSW
OTV 4 2.5 20:27:58 10° WSW 20:29:56 17° SSW 20:31:54 10° SSE
Nadezhda 4 Rocket 4.1 20:23:39 10° N 20:29:56 84° W 20:36:14 10° S
ALOS 3.9 20:27:51 10° SSW 20:32:08 36° W 20:36:27 10° NNW
DELTA 2 R/B (1) 4.1 20:27:45 10° W 20:33:09 49° SSW 20:37:59 13° SE
Cosmos 1892 3.1 20:30:06 10° NNW 20:33:52 66° W 20:37:38 10° S
Cosmos 1634 Rocket 4.1 20:30:33 10° S 20:36:42 61° E 20:42:56 10° NNE
Intercosmos 25 Rocket 3.9 20:35:33 10° SSE 20:38:19 28° E 20:41:31 10° NNE
Cosmos 1092 Rocket 4.0 20:32:16 10° N 20:38:39 82° E 20:44:59 10° S
Cosmos 2263 Rocket 3.4 20:34:20 10° N 20:38:58 26° NE 20:42:39 14° ESE
Meteor 2-3 Rocket 4.4 20:33:33 10° NNW 20:39:08 58° W 20:44:46 10° S
Cosmos 1315 Rocket 2.8 20:35:30 10° N 20:39:37 80° E 20:43:38 10° SSE
H-2A R/B 4.3 20:37:19 10° SSW 20:40:59 38° W 20:44:38 10° NNW
Cosmos 2322 Rocket 2.6 20:37:14 10° S 20:42:23 39° ESE 20:47:36 10° NE
USA 186 1.6 20:40:19 10° S 20:42:55 67° W 20:45:45 10° NNW
Cosmos 1707 Rocket 3.7 20:42:41 10° S 20:47:08 83° W 20:51:36 10° N
YAOGAN 6 3.8 20:45:47 18° ESE 20:47:34 26° ENE 20:50:39 10° NNE
Spot 2 Rocket 4.3 20:43:13 10° S 20:48:11 53° W 20:53:10 10° NNW
Abrixas rocket 2.5 20:45:13 10° WSW 20:48:30 66° NNW 20:51:46 10° ENE
ORS 1 (USA 231) 4.5 20:49:01 10° WSW 20:52:05 64° S 20:53:47 23° E
Cosmos 2360 Rocket 3.5 20:52:40 18° ESE 20:53:48 19° E 20:57:36 10° ENE
Meteor 2-20 Rocket 4.5 20:47:58 10° N 20:54:03 66° E 21:00:08 10° SSE
Cosmos 1980 Rocket 2.9 20:48:40 10° SW 20:54:16 59° WNW 20:59:55 10° NNE
Cosmos 1733 Rocket 3.7 20:50:36 10° N 20:54:47 39° ENE 20:57:20 20° SE
Helios 1B rocket 2.4 20:54:31 10° NNE 20:58:38 86° WNW 21:02:44 10° SSW
Cosmos 1862 Rocket 4.1 20:56:59 16° SSE 21:00:07 39° E 21:04:17 10° NNE
Meteor 1-29 2.8 20:57:06 10° NNE 21:00:36 83° ESE 21:04:04 10° S
Lacrosse 4 Rocket 1.9 20:56:49 10° NNW 21:01:00 48° ENE 21:03:17 25° ESE
Cosmos 1825 2.1 21:02:19 10° N 21:06:07 70° E 21:08:24 22° SSE
Cosmos 1862 3.6 21:02:41 10° N 21:06:36 47° E 21:08:22 28° SE
Envisat 3.1 21:02:55 10° S 21:07:59 81° WSW 21:13:06 10° NNW
SL-16 R/B 2.1 21:03:38 10° S 21:09:13 66° ESE 21:14:52 10° NNE
Cosmos 1939 Rocket 2.9 21:09:41 17° S 21:12:49 81° WSW 21:16:52 10° NNW
Cosmos 2242 Rocket 3.6 21:08:56 10° S 21:13:28 89° WNW 21:17:59 10° N
Milstar 3 3.8 21:08:02 10° WSW 21:14:26 29° S 21:17:22 21° SSE
SJ-11-01 4.4 21:10:59 14° S 21:15:03 77° WSW 21:19:45 10° NNW
SPOT 5 3.8 21:15:36 26° ESE 21:17:08 31° ENE 21:21:16 10° N
CZ-4B DEB 3.6 21:15:52 18° SSW 21:17:49 45° W 21:20:47 10° NNW
Cosmos 2279 Rocket 3.9 21:12:58 10° S 21:19:11 77° E 21:25:25 10° N
ATLAS 5 CENTAUR R/B 3.2 21:15:44 10° NNW 21:21:12 37° NE 21:24:21 23° E
MetOp-B 4.5 21:21:51 30° SE 21:24:10 48° ENE 21:29:18 10° N
USA 234 3.5 21:20:01 22° SSE 21:24:24 66° SW 21:30:56 10° NW
OAO 3 Rocket 3.7 21:23:41 10° WSW 21:28:18 40° S 21:29:18 36° SSE
Resurs 01 Rocket 4.4 21:26:38 10° SW 21:29:23 16° W 21:32:09 10° NW
ARGOS 3.6 21:30:20 33° ESE 21:32:05 43° ENE 21:37:08 10° N
SPOT 1/Viking Rocket 4.4 21:30:50 29° E 21:32:05 32° ENE 21:36:41 10° N
Atlas Centaur 2 3.7 21:26:34 10° SW 21:32:51 29° SSE 21:34:14 28° SE
Cosmos 1428 Rocket 4.4 21:31:02 10° N 21:37:11 87° W 21:41:11 23° S
MOS 1-B Rocket 4.3 21:35:42 33° ESE 21:37:53 47° ENE 21:43:17 10° N
Cosmos 2180 Rocket 4.5 21:32:41 10° S 21:39:05 89° ESE 21:45:28 10° N
Cosmos 1844 Rocket 4.3 21:38:39 10° N 21:42:39 20° NE 21:44:04 18° ENE
ERS-1 Rocket 3.0 21:42:12 31° S 21:44:39 75° WSW 21:49:41 10° NNW
Cosmos 1408 4.4 21:44:47 10° NNW 21:48:02 29° W 21:50:06 17° SW
ERBS 3.6 21:49:40 10° WNW 21:52:42 32° WSW 21:52:42 32° WSW
Sich 1 Rocket 3.5 21:49:00 10° N 21:53:29 74° E 21:53:57 66° SE
Meteor 1-14 Rocket 4.2 21:52:50 10° N 21:58:27 63° E 21:59:37 51° SE
Cosmos 2219 Rocket 4.4 22:03:40 10° ENE 22:03:40 10° ENE 22:03:45 10° ENE
SeaSat 1 2.3 22:00:11 60° SE 22:01:06 84° ENE 22:06:04 10° NNW
H-2A R/B 3.3 22:07:13 29° NE 22:07:13 29° NE 22:10:13 10° N
USA 229 DEB 3.7 22:04:47 41° SSE 22:06:46 54° ESE 22:13:29 10° NE
USA 229 3.7 22:05:03 42° SSE 22:06:52 54° ESE 22:13:34 10° NE
MetOp-A 4.4 22:08:21 41° SSW 22:10:05 64° WSW 22:15:25 10° NNW
USA 245 4.2 22:08:35 49° S 22:10:19 85° WSW 22:15:40 10° NNW
Cosmos 1908 Rocket 3.6 22:06:32 10° NNW 22:10:52 70° W 22:11:04 69° WSW
Landsat 7 4.3 22:11:17 45° ENE 22:11:17 45° ENE 22:15:31 10° N
Meteor 1-25 Rocket 4.1 22:12:28 10° N 22:18:03 67° ENE 22:18:23 66° E
COSMOS 2428 3.5 22:23:05 36° ENE 22:23:05 36° ENE 22:26:49 10° NE
Cosmos 1867 3.4 22:16:54 10° NNW 22:22:23 79° ENE 22:22:40 76° E
Cosmos 2263 Rocket 2.8 22:17:46 10° NW 22:23:06 47° WSW 22:24:23 40° SW
H-2A R/B 1.8 22:24:03 79° ENE 22:24:03 79° ENE 22:28:59 10° N
Cosmos 1782 Rocket 3.8 22:20:24 10° N 22:24:09 65° NNW 22:24:09 65° NNW
Okean 2 Rocket 3.6 22:20:33 10° N 22:24:13 53° NNE 22:24:13 53° NNE
Terra 2.6 22:26:53 41° NE 22:26:53 41° NE 22:30:39 10° N
Cosmos 2322 Rocket 4.0 22:21:37 10° WSW 22:26:30 30° NW 22:31:26 10° N
Cosmos 2360 Rocket 2.6 22:34:16 28° SW 22:37:15 60° WNW 22:42:53 10° NNE
SL-08 RB Rocket 4.3 22:37:52 52° W 22:37:52 52° W 22:42:09 10° NNW
Lacrosse 4 Rocket 3.8 22:36:39 10° WNW 22:39:20 16° WSW 22:39:39 16° WSW
Meteor 1-20 Rocket 4.1 22:34:39 10° N 22:40:14 89° W 22:40:14 89° W
Cosmos 1844 4.4 22:36:43 10° N 22:41:50 41° NE 22:41:50 41° NE
Cosmos 2322 4.0 22:40:41 40° SW 22:42:39 64° WNW 22:48:20 10° NNE
Cosmos 968 Rocket 4.1 22:41:24 10° NNW 22:46:22 47° WSW 22:46:23 47° WSW
Meteor 2-6 Rocket 4.5 22:49:28 64° NE 22:49:28 64° NE 22:54:42 10° NNE
Geosat 4.3 22:43:54 10° NNE 22:47:59 59° NNE 22:47:59 59° NNE
ASTEX 1 4.0 22:50:52 51° NNE 22:50:52 51° NNE 22:54:42 10° N
Okean 1-7 4.3 22:55:18 40° NW 22:55:18 40° NW 22:58:47 10° N
SPOT 5 4.3 22:54:50 28° WSW 22:55:09 29° W 22:59:17 10° NW
CZ-4C R/B 3.9 22:51:27 10° NNW 22:57:50 35° NE 22:59:44 31° ENE
Cosmos 2333 Rocket 3.7 23:04:54 26° NE 23:04:54 26° NE 23:07:32 10° NE
ATLAS 5 CENTAUR R/B 3.0 23:00:17 10° NW 23:05:54 46° WSW 23:05:54 46° WSW
Cosmos 2237 Rocket 4.0 23:14:50 21° NE 23:14:50 21° NE 23:16:51 10° NE
Cosmos 2278 Rocket 3.1 23:09:51 10° N 23:14:18 39° NE 23:14:18 39° NE
Meteor 1-27 Rocket 4.4 23:19:29 50° NNE 23:19:29 50° NNE 23:23:36 10° NNE
Atlas Centaur 2 4.5 23:14:27 10° WSW 23:16:54 21° SW 23:16:54 21° SW
Cosmos 1553 Rocket 4.1 23:23:20 72° N 23:23:20 72° N 23:28:54 10° N
Cosmos 1844 Rocket 3.4 23:21:31 10° NNW 23:25:44 49° NW 23:25:44 49° NW
Meteor 1-11 Rocket 4.5 23:34:02 10° NNW 23:38:03 48° NNW 23:38:03 48° NNW
Cosmos 2219 Rocket 3.1 23:45:20 44° N 23:45:20 44° N 23:49:15 10° NNE
